CW0566 Weather Reports


Display with metric or nautical units.
time (UTC)temp
F
wind
direction
speed
MPH
gust
MPH
rain 1hr
in
rain 24hr
in
rain mn
in
humidity
%
barometer
mb
20260506161016 69 293 5.0 12.0 0.00 0.00 0.00 76 1009.6
20260506160139 69 293 5.0 9.0 0.00 0.00 0.00 74 1010.0
20260506155016 69 293 5.0 13.0 0.00 0.00 0.00 73 1009.9
20260506154016 69 293 6.0 11.0 0.00 0.00 0.00 72 1009.9
20260506153017 69 270 7.0 16.0 0.00 0.00 0.00 71 1009.7
20260506152016 69 293 5.0 17.0 0.00 0.00 0.00 71 1009.9
20260506151016 69 293 5.0 11.0 0.00 0.00 0.00 70 1010.0
20260506150016 70 270 3.0 12.0 0.00 0.00 0.00 69 1009.8
20260506145016 70 338 3.0 10.0 0.00 0.00 0.00 69 1009.9
20260506144016 70 293 4.0 13.0 0.00 0.00 0.00 70 1010.1
20260506143016 69 270 3.0 12.0 0.00 0.00 0.00 70 1010.1
20260506142016 69 270 4.0 10.0 0.00 0.00 0.00 69 1010.1
20260506141016 70 338 4.0 10.0 0.00 0.00 0.00 68 1010.1
20260506140016 70 315 5.0 11.0 0.00 0.00 0.00 68 1010.0
20260506135016 70 270 3.0 11.0 0.00 0.00 0.00 69 1009.9
20260506134017 69 293 6.0 12.0 0.00 0.00 0.00 69 1009.9
20260506133016 69 315 5.0 12.0 0.00 0.00 0.00 70 1009.8
20260506132036 68 270 4.0 12.0 0.00 0.00 0.00 71 1010.0
20260506131016 69 293 4.0 14.0 0.00 0.00 0.00 71 1010.1
20260506130015 69 293 4.0 12.0 0.00 0.00 0.00 71 1010.2
20260506125036 68 270 6.0 12.0 0.00 0.00 0.00 72 1010.3
20260506124016 68 270 4.0 12.0 0.00 0.00 0.00 73 1010.2
20260506123016 67 270 6.0 15.0 0.00 0.00 0.00 74 1010.2
20260506122015 67 293 4.0 11.0 0.00 0.00 0.00 74 1010.2
20260506121016 67 270 4.0 10.0 0.00 0.00 0.00 75 1010.1
20260506120015 67 270 4.0 11.0 0.00 0.00 0.00 76 1010.0
20260506115016 66 270 4.0 16.0 0.00 0.00 0.00 77 1010.1
20260506114016 66 315 4.0 10.0 0.00 0.00 0.00 76 1010.0
20260506113015 65 293 2.0 8.0 0.00 0.00 0.00 78 1010.2
20260506112036 65 293 3.0 8.0 0.00 0.00 0.00 79 1010.0
20260506111015 64 270 3.0 8.0 0.00 0.00 0.00 80 1010.1
20260506110015 64 270 5.0 10.0 0.00 0.00 0.00 80 1010.3
20260506105015 63 270 3.0 9.0 0.00 0.00 0.00 81 1010.2
20260506104016 63 293 3.0 9.0 0.00 0.00 0.00 82 1010.1
20260506103015 62 248 3.0 9.0 0.00 0.00 0.00 82 1010.1
20260506102015 62 270 3.0 9.0 0.00 0.00 0.00 82 1010.0
20260506101015 63 315 3.0 8.0 0.00 0.00 0.00 83 1010.1
20260506100017 63 180 3.0 9.0 0.00 0.00 0.00 83 1010.1
20260506095017 63 270 4.0 10.0 0.00 0.00 0.00 83 1010.1
20260506094038 63 293 3.0 8.0 0.00 0.00 0.00 82 1009.9
20260506093017 63 293 2.0 6.0 0.00 0.00 0.00 82 1009.8
20260506092018 63 315 2.0 8.0 0.00 0.00 0.00 82 1009.8
20260506091038 63 248 3.0 12.0 0.00 0.00 0.00 82 1009.8
20260506090017 63 270 2.0 6.0 0.00 0.00 0.00 82 1010.0
20260506085038 64 158 3.0 7.0 0.00 0.00 0.00 82 1009.9
20260506084038 63 270 4.0 12.0 0.00 0.00 0.00 82 1010.0
20260506083017 64 270 3.0 8.0 0.00 0.00 0.00 82 1010.1
20260506082056 63 293 3.0 11.0 0.00 0.00 0.00 83 1010.3
20260506081057 64 270 3.0 7.0 0.00 0.00 0.00 82 1010.3
20260506073017 64 293 2.0 8.0 0.00 0.00 0.00 82 1010.3
20260506072018 64 315 2.0 8.0 0.00 0.00 0.00 81 1010.3
20260506071017 64 270 2.0 7.0 0.00 0.00 0.00 81 1010.4
20260506062038 65 293 2.0 8.0 0.00 0.00 0.00 80 1010.4
20260506061017 65 248 2.0 7.0 0.00 0.00 0.00 80 1010.3
20260506051016 66 293 2.0 6.0 0.00 0.00 0.00 78 1010.9
20260506045037 66 248 3.0 10.0 0.00 0.00 0.00 78 1011.0
20260506044017 66 293 3.0 10.0 0.00 0.00 0.00 78 1011.1
20260506043017 66 225 2.0 8.0 0.00 0.00 0.00 77 1011.1
20260506042017 66 225 2.0 6.0 0.00 0.00 0.00 77 1011.1
20260506041017 66 293 3.0 9.0 0.00 0.00 0.00 76 1011.0
20260506040037 66 293 3.0 9.0 0.00 0.00 0.00 76 1011.0
20260506035017 66 248 3.0 9.0 0.00 0.00 0.00 76 1011.1
20260506034017 66 293 3.0 8.0 0.00 0.00 0.00 75 1011.0
20260506033018 67 248 3.0 12.0 0.00 0.00 0.00 75 1011.0
20260506032058 67 270 2.0 8.0 0.00 0.00 0.00 74 1011.1
20260506031018 67 270 3.0 8.0 0.00 0.00 0.00 73 1011.0
20260506030038 67 293 3.0 9.0 0.00 0.00 0.00 72 1011.1
20260506025017 68 338 3.0 8.0 0.00 0.00 0.00 71 1011.2
20260506024017 68 293 3.0 10.0 0.00 0.00 0.00 70 1011.3
20260506023017 68 293 2.0 6.0 0.00 0.00 0.00 69 1011.3
20260506022017 69 225 4.0 11.0 0.00 0.00 0.00 68 1011.1
20260506021018 69 293 3.0 11.0 0.00 0.00 0.00 67 1011.0
20260506020017 69 270 4.0 12.0 0.00 0.00 0.00 67 1011.0
20260506015017 69 270 4.0 11.0 0.00 0.00 0.00 66 1010.8
20260506014017 69 270 3.0 10.0 0.00 0.00 0.00 66 1010.7
20260506013018 69 270 3.0 8.0 0.00 0.00 0.00 66 1010.6
20260506012017 69 270 3.0 8.0 0.00 0.00 0.00 66 1010.6
20260506011018 70 180 2.0 8.0 0.00 0.00 0.00 65 1010.6
20260506010038 70 225 1.0 6.0 0.00 0.00 0.00 64 1010.5
20260506005017 71 270 1.0 5.0 0.00 0.00 0.00 63 1010.4
20260506004017 71 225 2.0 8.0 0.00 0.00 0.00 62 1010.3
20260506003017 71 315 2.0 12.0 0.00 0.00 0.00 60 1010.2
20260506002017 72 315 2.0 6.0 0.00 0.00 0.00 57 1010.1
20260506001017 73 293 2.0 10.0 0.00 0.00 0.00 56 1010.0
20260506000017 74 293 3.0 9.0 0.00 0.00 0.00 54 1010.0
20260505235017 75 315 3.0 8.0 0.00 0.00 0.00 51 1009.9
20260505234037 76 270 2.0 6.0 0.00 0.00 0.00 48 1009.8
20260505233017 77 315 3.0 8.0 0.00 0.00 0.00 47 1009.7
20260505232037 77 315 2.0 6.0 0.00 0.00 0.00 46 1009.6
20260505231017 78 338 3.0 11.0 0.00 0.00 0.00 45 1009.6
20260505230016 79 270 4.0 11.0 0.00 0.00 0.00 44 1009.5
20260505225018 79 270 3.0 6.0 0.00 0.00 0.00 44 1009.6
20260505224017 80 293 6.0 15.0 0.00 0.00 0.00 44 1009.5
20260505223017 79 270 8.0 16.0 0.00 0.00 0.00 45 1009.6
20260505222016 79 270 7.0 17.0 0.00 0.00 0.00 45 1009.5
20260505221037 80 338 4.0 11.0 0.00 0.00 0.00 45 1009.5
20260505220038 81 315 6.0 16.0 0.00 0.00 0.00 44 1009.4
20260505215018 81 270 7.0 18.0 0.00 0.00 0.00 44 1009.5
20260505214037 81 270 9.0 19.0 0.00 0.00 0.00 42 1009.4
20260505213037 81 270 9.0 17.0 0.00 0.00 0.00 42 1009.4
20260505212016 82 270 9.0 16.0 0.00 0.00 0.00 41 1009.4
20260505211037 83 293 7.0 18.0 0.00 0.00 0.00 40 1009.5
20260505210017 83 270 5.0 15.0 0.00 0.00 0.00 41 1009.3
20260505205016 83 315 5.0 12.0 0.00 0.00 0.00 40 1009.1
20260505204057 83 270 8.0 19.0 0.00 0.00 0.00 38 1009.2
20260505203037 84 270 7.0 18.0 0.00 0.00 0.00 36 1009.2
20260505202018 84 338 5.0 14.0 0.00 0.00 0.00 36 1008.9
20260505201037 84 248 9.0 22.0 0.00 0.00 0.00 36 1009.0
20260505200016 84 293 7.0 16.0 0.00 0.00 0.00 37 1008.9
20260505195017 84 315 6.0 14.0 0.00 0.00 0.00 37 1009.1
20260505194016 83 315 9.0 22.0 0.00 0.00 0.00 38 1009.2
20260505193017 84 248 8.0 20.0 0.00 0.00 0.00 38 1009.3
20260505192016 84 293 9.0 19.0 0.00 0.00 0.00 41 1009.3
20260505191017 84 270 7.0 17.0 0.00 0.00 0.00 41 1009.4
20260505190016 84 270 7.0 17.0 0.00 0.00 0.00 43 1009.6
20260505185036 83 338 6.0 13.0 0.00 0.00 0.00 43 1009.7
20260505184017 83 270 6.0 16.0 0.00 0.00 0.00 45 1009.8
20260505183016 83 338 7.0 16.0 0.00 0.00 0.00 45 1009.8
20260505182016 83 315 8.0 17.0 0.00 0.00 0.00 45 1009.9
20260505181016 83 293 5.0 14.0 0.00 0.00 0.00 45 1010.0
20260505180016 83 270 6.0 15.0 0.00 0.00 0.00 44 1010.0
20260505175016 82 270 7.0 15.0 0.00 0.00 0.00 45 1010.5
20260505174036 83 315 7.0 15.0 0.00 0.00 0.00 46 1010.6
20260505173016 82 270 6.0 13.0 0.00 0.00 0.00 45 1010.8
20260505172017 82 270 5.0 14.0 0.00 0.00 0.00 48 1010.9
20260505171016 82 270 5.0 13.0 0.00 0.00 0.00 49 1010.9
20260505170016 82 270 5.0 14.0 0.00 0.00 0.00 48 1011.0
20260505165016 81 270 6.0 15.0 0.00 0.00 0.00 48 1011.0
20260505164016 81 293 5.0 13.0 0.00 0.00 0.00 50 1011.0
20260505163036 81 293 4.0 10.0 0.00 0.00 0.00 48 1011.1
20260505162016 81 338 2.0 6.0 0.00 0.00 0.00 51 1011.1